Location: Piazza
(45.2333°N, 11.2167°E)
Time: 09:37:47
(UTC+00:00)

Daily predictions for brighter satellites

Satellite Brightness Start Highest point End
(mag) Time Altitude Azimuth Time Altitude Azimuth Time Altitude Azimuth
Cosmos 2056 Rocket 4.2 19:24:59 10° SW 19:30:01 59° WNW 19:35:06 10° NNE
STARLINK-1126 3.7 19:26:41 10° WNW 19:30:52 85° NNE 19:35:01 10° ESE
Aureole 2 Rocket 3.8 19:29:24 10° SE 19:31:29 17° ESE 19:33:31 10° ENE
STARLINK-1240 3.7 19:29:02 10° WSW 19:33:10 83° NW 19:37:21 10° ENE
Meteor 1-4 Rocket 2.9 19:30:01 10° SSW 19:33:26 67° WNW 19:36:55 10° N
Cosmos 1437 Rocket 3.8 19:30:19 10° SSE 19:33:30 26° E 19:36:44 10° NE
STARLINK-1082 3.6 19:31:37 10° WNW 19:35:46 89° SW 19:39:56 10° SE
USA 186 4.2 19:35:22 10° SW 19:37:03 16° W 19:38:50 10° NW
Lacrosse 5 2.0 19:32:35 10° NW 19:37:39 78° SW 19:42:41 10° SE
STARLINK-1203 3.9 19:33:38 10° WSW 19:37:50 78° NNW 19:42:03 10° NE
STARLINK-1216 3.8 19:34:01 10° WSW 19:38:09 78° NNW 19:42:19 10° NE
STARLINK-1100 3.6 19:36:35 10° WNW 19:40:44 83° SW 19:44:53 10° SE
ISS -3.5 19:37:27 10° WNW 19:40:47 63° SW 19:44:06 10° SE
COSMOS 2406 4.2 19:36:42 10° NW 19:42:12 47° WSW 19:47:40 10° S
Cosmos 1975 3.8 19:38:51 10° NNW 19:42:45 47° W 19:46:36 10° SSW
STARLINK-1237 3.9 19:39:00 10° WSW 19:43:08 73° NNW 19:47:18 10° NE
CZ-2C R/B 3.0 19:37:56 10° NNE 19:43:35 80° WNW 19:49:11 10° SSW
STARLINK-1083 3.7 19:41:35 10° WNW 19:45:44 77° SW 19:49:44 11° SE
Cosmos 1674 Rocket 4.3 19:43:02 10° SSE 19:46:59 35° E 19:50:59 10° NNE
Meteor 2-4 Rocket 3.6 19:41:39 10° S 19:47:01 90° S 19:52:25 10° N
STARLINK-1202 4.0 19:44:01 10° WSW 19:48:08 68° NNW 19:52:17 10° NE
NOSS 2-2 (E) 4.0 19:45:47 10° S 19:48:51 27° ESE 19:52:08 10° ENE
EXPRESS MD2 3.3 19:47:13 10° SW 19:49:55 47° SE 19:54:38 10° ENE
STARLINK-1125 3.7 19:46:35 10° WNW 19:50:43 71° SW 19:54:31 12° SE
Cosmos 2297 4.1 19:48:20 10° S 19:53:39 43° ESE 19:59:01 10° NE
Cosmos 1833 Rocket 3.2 19:48:14 10° NNW 19:53:45 58° WSW 19:59:13 10° S
Cosmos 1943 Rocket 3.5 19:50:28 10° SE 19:54:19 19° E 19:58:10 10° NE
STARLINK-1109 3.8 19:51:34 10° WNW 19:55:41 66° SW 19:59:18 13° SE
STARLINK-1246 4.3 19:54:02 10° WSW 19:58:08 60° NNW 20:02:15 10° NE
IGS 5A 4.0 19:55:29 12° SE 19:59:10 45° ENE 20:03:09 10° N
Cosmos 1452 Rocket 3.6 19:55:01 10° SSW 20:00:18 87° WNW 20:05:37 10° NNE
Cosmos 2082 Rocket 2.3 19:54:43 10° NNW 20:00:28 83° WSW 20:06:02 11° SSE
Cosmos 332 Rocket 3.8 19:55:42 10° SSW 20:00:35 75° ESE 20:05:30 10° NNE
STARLINK-1091 3.8 19:56:32 10° WNW 20:00:37 61° SW 20:04:04 14° SE
BREEZE-M DEB 3.1 19:58:56 10° SSW 20:00:54 26° SE 20:04:06 10° ENE
Landsat 7 4.1 19:57:48 11° SE 20:02:09 52° ENE 20:06:48 10° N
STARLINK-1097 4.4 19:58:51 10° NW 20:02:53 47° NNE 20:06:53 10° E
STARLINK-1224 4.4 19:59:02 10° WSW 20:03:06 56° NNW 20:07:12 10° NE
Intercosmos 24 3.7 19:59:38 10° N 20:03:12 89° E 20:07:06 10° S
STARLINK-1072 4.0 20:01:33 10° WNW 20:05:37 55° SW 20:08:52 15° SE
Cosmos 1461 2.8 20:02:56 10° SSW 20:07:02 75° ESE 20:11:24 10° NE
STARLINK-1099 4.3 20:03:49 10° NW 20:07:52 50° NNE 20:11:54 10° E
Okean 3 4.3 20:04:51 10° SSW 20:09:04 54° WNW 20:13:18 10° N
Cosmos 2369 Rocket 3.6 20:07:22 13° SE 20:10:13 19° E 20:14:05 10° NE
STARLINK-1096 4.1 20:06:33 10° WNW 20:10:34 51° SW 20:13:39 16° SSE
SAR-Lupe-2 3.7 20:08:12 10° NNE 20:11:45 52° ESE 20:15:09 11° S
STARLINK-1104 4.2 20:08:47 10° NW 20:12:51 53° NNE 20:16:40 11° ESE
NOSS 2-2 (C) 3.5 20:10:02 10° S 20:13:21 38° ESE 20:16:55 10° NE
STARLINK-1079 4.2 20:11:33 10° WNW 20:15:32 47° SW 20:18:26 17° SSE
ATLAS 2AS CENTAUR R/B 4.2 20:13:12 14° SE 20:17:10 20° ESE 20:22:32 10° ENE
STARLINK-1144 4.1 20:13:46 10° NW 20:17:51 56° NNE 20:21:27 13° ESE
SL-4 R/B 3.6 20:15:57 10° WNW 20:18:02 17° WSW 20:20:01 10° SSW
SPOT 5 3.7 20:14:18 15° SE 20:18:17 42° ENE 20:23:19 10° N
STARLINK-1116 4.3 20:16:33 10° WNW 20:20:29 43° SW 20:23:13 18° SSE
Meteor 1-13 Rocket 4.5 20:14:57 10° SSW 20:20:33 74° WNW 20:26:20 10° N
STARLINK-1103 4.0 20:18:44 10° NW 20:22:50 60° NNE 20:26:14 14° ESE
ERS-1 Rocket 3.3 20:19:40 16° SE 20:23:27 52° ENE 20:28:21 10° N
STARLINK-1101 3.9 20:23:42 10° NW 20:27:50 64° NNE 20:31:01 16° ESE
Cosmos 1066 Rocket 4.1 20:22:50 10° S 20:28:11 70° E 20:33:32 10° NNE
USA 245 2.7 20:27:56 19° S 20:29:57 65° WSW 20:32:31 10° NNW
USA 238 DEB 4.2 20:25:16 10° NNW 20:32:21 57° NE 20:38:25 16° ESE
USA 238 4.3 20:25:22 10° NNW 20:32:27 57° NE 20:38:32 15° ESE
STARLINK-1102 3.8 20:28:41 10° NW 20:32:49 68° NNE 20:35:48 18° ESE
Resurs 01 Rocket 3.2 20:29:34 10° SSW 20:33:30 31° W 20:37:28 10° NNW
Cosmos 2278 Rocket 4.2 20:28:31 10° WSW 20:33:34 32° NW 20:38:39 10° N
Nadezhda 4 Rocket 3.9 20:28:31 10° S 20:34:37 73° E 20:40:43 10° NNE
Okean 1 Rocket 3.0 20:30:20 10° N 20:34:50 80° E 20:37:54 20° SSE
Cosmos 1805 3.7 20:31:17 10° N 20:35:05 46° ENE 20:37:07 24° SE
Cosmos 1741 Rocket 4.5 20:30:26 10° NNW 20:35:33 57° WSW 20:39:49 15° S
GPS 2-04 Rocket1 4.2 20:33:40 10° SW 20:35:57 16° S 20:35:57 16° S
STARLINK-1111 3.7 20:33:39 10° NW 20:37:48 73° NNE 20:40:34 20° ESE
Cosmos 1455 Rocket 4.3 20:36:38 10° NNE 20:40:20 27° ENE 20:42:18 19° ESE
STARLINK-1073 3.7 20:38:38 10° NW 20:42:48 78° NNE 20:45:22 22° ESE
SL-8 R/B 3.7 20:38:00 10° WNW 20:42:49 88° SSW 20:46:16 19° ESE
Terra 2.2 20:44:22 23° SE 20:47:08 52° ENE 20:51:46 10° N
SL-4 R/B 3.0 20:42:56 10° SSW 20:47:10 33° SE 20:51:31 10° ENE
Cosmos 1110 Rocket 4.0 20:42:02 10° SSW 20:47:13 86° WNW 20:52:26 10° NNE
ATLAS 3B CENTAUR R/B 4.0 20:37:12 10° WSW 20:47:37 26° S 20:50:57 20° SSE
STARLINK-1121 3.6 20:43:36 10° WNW 20:47:46 83° NNE 20:50:08 25° ESE
Spot 2 Rocket 4.2 20:44:03 13° S 20:48:25 50° W 20:53:20 10° NNW
SPOT 1/Viking Rocket 3.7 20:45:17 17° S 20:49:14 70° WSW 20:54:24 10° NNW
Cosmos 1842 4.1 20:48:51 27° SE 20:50:05 33° E 20:53:36 10° NNE
CARTOSAT-1 3.5 20:47:49 24° SSE 20:50:23 86° ENE 20:54:44 10° NNW
Abrixas rocket 2.1 20:48:20 10° WNW 20:51:14 55° SSW 20:51:50 44° SSE
STARLINK-1106 3.5 20:48:36 10° WNW 20:52:46 89° NNE 20:54:57 27° ESE
STARLINK-1112 3.5 20:53:33 10° WNW 20:57:43 85° SSW 20:59:42 30° SE
STARLINK-1128 3.5 20:58:32 10° WNW 21:02:41 79° SW 21:04:28 33° SE
Cosmos 1331 Rocket 4.2 20:58:55 10° SSW 21:04:02 69° WNW 21:09:14 10° NNE
Aureole 2 Rocket 4.5 21:02:24 10° WSW 21:04:58 24° WNW 21:07:29 10° N
STARLINK-1113 3.6 21:03:32 10° WNW 21:07:40 73° SW 21:09:15 36° SE
Cosmos 1733 3.1 21:04:23 10° N 21:08:12 77° E 21:09:32 39° SSE
COSMOS 2455 4.1 21:09:44 21° ESE 21:10:33 21° ESE 21:14:55 10° ENE
Cosmos 1378 3.7 21:09:41 20° SSW 21:12:01 56° W 21:15:41 10° N
STARLINK-1119 3.6 21:08:32 10° WNW 21:12:40 68° SW 21:14:04 39° SSE
Cosmos 1302 Rocket 3.9 21:10:14 19° SSW 21:14:06 79° ESE 21:19:26 10° NNE
Cosmos 1271 Rocket 3.8 21:14:22 28° ESE 21:14:46 29° E 21:18:11 10° NNE
USA 215 4.5 21:09:00 10° E 21:14:59 39° NNE 21:20:57 10° NW
Cosmos 1486 Rocket 4.3 21:10:28 10° NNW 21:15:42 58° ENE 21:18:13 30° SE
Cosmos 1242 Rocket 3.1 21:15:26 39° ESE 21:15:56 41° E 21:19:25 10° NNE
Cosmos 1544 Rocket 4.0 21:13:04 10° N 21:17:15 46° ENE 21:18:39 33° SE
STARLINK-1114 3.7 21:13:30 10° WNW 21:17:37 62° SW 21:18:49 41° SSE
MTI 3.5 21:15:22 10° NNE 21:18:31 76° ESE 21:18:58 60° SSE
STARLINK-60 3.6 21:20:10 38° E 21:20:10 38° E 21:22:23 10° ENE
Lacrosse 5 4.0 21:17:15 10° W 21:19:52 14° WSW 21:22:07 11° SSW
Cosmos 1092 Rocket 4.0 21:15:31 19° S 21:20:09 82° W 21:26:20 10° N
NOSS 2-2 (D) 4.4 21:18:23 10° WSW 21:21:49 43° NW 21:25:40 10° NNE
STARLINK-1130 (DARKSAT) 3.8 21:18:30 10° WNW 21:22:35 57° SW 21:23:37 43° SSE
Cosmos 1707 3.8 21:24:35 29° E 21:24:53 29° E 21:28:17 10° NNE
CENTAUR R/B 3.4 21:17:03 10° NW 21:25:03 69° NE 21:31:08 22° SE
STARLINK-1084 3.9 21:23:30 10° WNW 21:27:33 52° SW 21:28:24 44° S
ATLAS 3B R/B 3.7 21:21:45 10° NNW 21:28:03 39° NE 21:33:56 12° ESE
SL-27 R/B 2.3 21:25:15 10° NNW 21:28:50 88° ENE 21:29:28 59° SSE
NOSS 3-2 (C) 4.1 21:22:44 10° NW 21:30:17 79° NE 21:35:37 25° SE
Cosmos 1766 4.2 21:27:21 10° NNW 21:31:09 43° W 21:32:47 28° SW
Cosmos 1726 3.8 21:29:22 10° NNE 21:32:17 21° ENE 21:32:50 21° E
STARLINK-1098 3.9 21:28:30 10° WNW 21:32:31 48° SW 21:33:11 43° S
Cosmos 1867 4.3 21:29:48 10° NNW 21:35:05 47° NE 21:38:07 24° ESE
COSMOS 2487 4.3 21:33:43 10° N 21:36:20 20° ENE 21:37:03 18° ENE
STARLINK-1123 4.0 21:33:30 10° WNW 21:37:27 44° SW 21:37:56 42° SSW
Cosmos 1943 Rocket 2.5 21:31:58 10° SW 21:37:28 65° WNW 21:43:03 10° NNE
Cosmos 1992 Rocket 4.2 21:36:08 37° SSE 21:37:41 50° ESE 21:42:43 10° NNE
NOSS 3-4 (A) 3.6 21:36:32 32° S 21:39:00 50° ESE 21:45:01 10° NE
NOSS 3-4 (C) 3.6 21:36:40 32° S 21:39:06 50° ESE 21:45:07 10° NE
STARLINK-1097 4.2 21:38:32 10° WNW 21:42:26 40° SW 21:42:45 40° SSW
SeaSat 1 2.8 21:38:59 10° NE 21:43:41 43° ESE 21:44:34 39° SE
EO 1 Del DPAF 3.5 21:40:41 10° NNE 21:44:21 47° E 21:44:29 46° ESE
Cosmos 1975 Rocket 3.9 21:44:36 23° SW 21:47:02 47° WNW 21:51:19 10° N
STARLINK-1099 4.3 21:43:33 10° WNW 21:47:23 37° SW 21:47:31 37° SW
STARLINK-1212 4.1 21:47:09 10° NW 21:50:07 39° NNE 21:50:47 34° ENE
STARLINK-1105 4.0 21:47:38 10° NW 21:50:35 39° NNE 21:51:13 34° NE
Cosmos 292 Rocket 3.8 21:48:20 30° SSW 21:50:42 80° WNW 21:55:35 10° NNE
STARLINK-1247 4.0 21:48:29 10° NW 21:51:29 40° NNE 21:52:06 35° ENE
BREEZE-M DEB (TANK) 3.8 21:38:01 10° WSW 21:51:45 71° NNW 21:55:26 10° ENE
STARLINK-1227 4.0 21:48:59 10° NW 21:51:57 40° NNE 21:52:33 35° NE
Meteor 2-10 4.3 21:47:12 10° N 21:52:09 53° ENE 21:53:43 38° SE
STARLINK-1104 4.5 21:48:33 10° WNW 21:52:18 34° SW 21:52:18 34° SW
STARLINK-1226 4.0 21:49:50 10° NW 21:52:49 40° NNE 21:53:24 36° NE
BREEZE-M DEB (TANK) 3.7 21:49:15 10° WNW 21:52:56 51° N 21:56:52 10° E
Cosmos 2369 Rocket 2.4 21:49:04 16° SW 21:53:39 68° WNW 21:59:18 10° NNE
STARLINK-1215 3.9 21:50:44 10° NW 21:53:43 41° NNE 21:54:16 37° NE
STARLINK-1217 3.9 21:52:33 10° NW 21:55:32 42° NNE 21:56:00 39° NE
S3M 4.1 21:49:26 10° N 21:55:36 67° E 21:58:11 36° SSE
STARLINK-1229 3.8 21:53:27 10° NW 21:56:28 43° NNE 21:56:54 40° NE
STARLINK-1270 3.8 21:54:20 10° NW 21:57:21 43° NNE 21:57:45 41° NE
STARLINK-1189 3.8 21:56:08 10° NW 21:59:09 44° NNE 21:59:29 42° NE
Aureole 3 Rocket 4.4 21:52:58 10° NNW 21:59:19 79° W 22:03:53 30° S
ATLAS CENTAUR R/B 1.6 21:59:35 50° ESE 21:59:35 50° ESE 22:03:38 10° NE
STARLINK-1188 3.7 21:57:03 10° NW 22:00:04 45° NNE 22:00:22 43° NE
STARLINK-1187 3.5 21:58:07 10° NW 22:01:10 50° NNE 22:01:14 50° NNE
Cosmos 1340 Rocket 3.4 21:58:03 10° N 22:01:58 44° ENE 22:02:31 42° E
STARLINK-1191 3.7 21:59:29 10° NW 22:02:30 47° NNE 22:02:39 46° NE
STARLINK-1221 3.6 22:00:26 10° NW 22:03:28 47° NNE 22:03:34 47° NE
Aureole 3 4.4 22:01:01 10° NNE 22:03:24 25° ENE 22:03:24 25° ENE
Cosmos 1025 Rocket 2.9 22:02:58 57° S 22:03:50 89° E 22:08:10 10° N
STARLINK-1222 3.6 22:01:16 10° NW 22:04:18 48° NNE 22:04:23 48° NNE
STARLINK-1214 3.6 22:02:10 10° NW 22:05:12 49° NNE 22:05:15 49° NNE
Thor Agena Rocket 3.5 21:59:54 10° NNE 22:05:14 86° ESE 22:07:12 40° SSW
ATLAS 2AS CENTAUR R/B 3.0 22:00:30 16° SSW 22:07:08 82° SE 22:15:07 10° NE
Cosmos 1656 Rocket 3.6 22:04:49 36° SSW 22:07:14 82° ESE 22:12:50 10° NNE
BREEZE M DEB (TANK) 3.5 22:05:27 10° W 22:08:11 32° N 22:08:33 30° NNE
Cosmos 1553 Rocket 4.0 22:02:48 10° NNW 22:09:05 73° W 22:11:43 36° S
Cosmos 1953 2.2 22:06:20 10° N 22:10:20 68° E 22:10:41 63° ESE
BREEZE-M DEB (TANK) 3.7 21:58:54 10° WNW 22:10:33 78° SSW 22:11:56 44° SE
STARLINK-1228 3.2 22:07:36 10° NW 22:11:06 73° NNE 22:11:08 73° NE
Cosmos 1470 3.2 22:07:36 10° NNW 22:11:21 48° W 22:11:51 45° WSW
Cosmos 2292 Rocket 3.6 22:13:24 45° ENE 22:13:24 45° ENE 22:16:15 10° NNE
STARLINK-1235 3.4 22:10:19 10° NW 22:13:12 63° NNW 22:13:12 63° NNW
Cosmos 968 Rocket 3.7 22:11:09 10° NNW 22:16:11 56° WSW 22:17:31 42° SSW
Cosmos 1655 Rocket 3.9 22:15:01 38° S 22:17:40 90° NW 22:23:57 10° N
Cosmos 1455 Rocket 4.5 22:14:24 10° NNW 22:18:08 28° W 22:19:25 24° WSW
SL-4 R/B 3.7 22:20:18 16° N 22:20:18 16° N 22:20:55 10° N
ATLAS 5 CENTAUR R/B 1.5 22:21:46 63° WSW 22:22:13 80° NW 22:24:34 10° NE
Cosmos 1758 4.1 22:21:01 10° NNW 22:24:50 41° W 22:25:25 38° WSW
Terra 3.8 22:23:15 15° WSW 22:25:11 19° W 22:28:31 10° NW
SL-4 R/B 2.7 22:21:55 10° WSW 22:26:44 69° NNW 22:31:34 10° ENE
Cosmos 2228 3.7 22:24:01 10° N 22:28:03 41° ENE 22:28:36 39° E
Meteor 2-15 4.4 22:22:47 10° N 22:28:57 75° E 22:31:06 42° SSE
STARLINK-1234 4.1 22:28:04 10° WNW 22:30:17 39° WNW 22:30:17 39° WNW
In-Cosmos 22 3.9 22:30:05 50° S 22:31:32 85° E 22:36:50 10° NNE
Cosmos 2266 Rocket 3.8 22:33:43 42° S 22:35:56 89° W 22:42:01 10° N
Cosmos 1503 Rocket 4.4 22:31:10 10° NNW 22:36:21 53° WSW 22:37:35 43° SSW
STARLINK-1209 4.4 22:34:14 10° WNW 22:36:13 33° WNW 22:36:13 33° WNW
STARLINK-1204 4.5 22:37:43 10° NW 22:41:46 48° NNE 22:43:59 24° E
SJ 16-02 3.9 22:41:48 10° NNE 22:44:08 14° NE 22:46:26 10° E
STARLINK-1238 4.4 22:42:43 10° NW 22:46:47 51° NNE 22:48:47 26° E
Cosmos 1674 2.6 22:48:20 77° NE 22:48:20 77° NE 22:51:57 10° N
Meteor 2-15 Rocket 4.4 22:42:41 10° N 22:48:53 84° E 22:50:55 45° SSE
Helios 1B rocket 4.2 22:47:07 10° NE 22:50:09 20° E 22:50:09 20° E
STARLINK-1201 4.3 22:47:41 10° NW 22:51:46 54° NNE 22:53:33 30° E
COSMOS 2455 3.0 22:52:49 30° SW 22:55:53 71° NW 23:01:56 10° NNE
STARLINK-1206 4.1 22:52:41 10° NW 22:56:47 57° NNE 22:58:21 34° E
Cosmos 883 Rocket 4.5 22:50:53 10° NNW 22:56:58 70° W 22:58:57 44° SSW
USA 215 3.3 22:52:56 21° ESE 22:57:32 83° NE 23:04:07 10° NW
Cosmos 2219 4.3 22:53:40 10° NNW 22:58:57 38° NE 23:02:17 20° ESE
STARLINK-1205 4.0 22:57:38 10° NW 23:01:45 61° NNE 23:03:07 38° E
Helios 1A 2.8 23:01:35 73° SE 23:01:56 80° ENE 23:06:08 10° NNW
Cosmos 2297 Rocket 3.5 22:58:02 10° NNW 23:03:12 35° NE 23:07:00 16° ESE
Lacrosse 4 Rocket 4.3 23:04:11 10° N 23:06:29 14° NE 23:08:45 10° ENE
STARLINK-1218 3.9 23:02:37 10° NW 23:06:46 65° NNE 23:07:55 43° E
STARLINK-1368 4.3 23:08:27 39° ENE 23:08:27 39° ENE 23:11:00 10° ENE
Cosmos 1726 3.6 23:04:19 10° NNW 23:07:20 26° W 23:07:20 26° W
ALOS 2 3.0 23:07:47 48° WSW 23:08:06 49° W 23:12:22 10° NNW
STARLINK-1369 4.1 23:11:48 43° ENE 23:11:48 43° ENE 23:14:29 10° ENE
Timation 2 Rocket 3.8 23:04:24 10° NNW 23:10:45 89° ENE 23:12:55 43° SSE
Cosmos 2058 Rocket 3.2 23:06:56 10° N 23:11:23 63° E 23:11:58 56° ESE
COSMOS 2487 4.2 23:08:24 10° NW 23:10:32 24° WNW 23:10:32 24° WNW
STARLINK-1254 3.8 23:07:36 10° NW 23:11:45 69° NNE 23:12:41 49° E
STARLINK-1372 4.0 23:15:07 48° ENE 23:15:07 48° ENE 23:17:59 10° ENE
CENTAUR R/B 3.9 23:08:14 10° NW 23:15:34 36° WSW 23:18:17 30° SSW
Meteor 2-5 Rocket 3.6 23:14:12 51° S 23:15:41 90° ENE 23:21:21 10° N
STARLINK-1231 3.7 23:12:33 10° NW 23:16:43 74° NNE 23:17:27 57° E
STARLINK-1378 3.8 23:18:28 54° ENE 23:18:28 54° ENE 23:21:29 10° ENE
ATLAS 3B R/B 2.8 23:12:22 10° NW 23:19:01 58° WSW 23:21:09 42° S
SL-14 R/B 3.4 23:19:11 63° E 23:19:11 63° E 23:22:51 10° NNE
FALCON 9 DEB 3.9 23:20:07 47° NW 23:20:23 49° NNW 23:23:45 10° NE
SeaSat 1 4.0 23:16:45 10° N 23:21:04 31° NW 23:24:20 15° WSW
STARLINK-1379 3.7 23:21:51 59° ENE 23:21:51 59° ENE 23:25:00 10° ENE
Cosmos 1606 Rocket 3.9 23:17:09 10° NNW 23:21:21 50° W 23:21:36 50° WSW
STARLINK-1232 3.6 23:17:33 10° WNW 23:21:43 79° NNE 23:22:15 65° E
STARLINK-1329 3.6 23:23:14 62° ENE 23:23:14 62° ENE 23:26:28 10° ENE
Meteor 2-21 4.4 23:20:59 46° S 23:22:59 87° E 23:29:14 10° N
STARLINK-1362 3.5 23:26:40 69° ENE 23:26:40 69° ENE 23:30:03 10° ENE
STARLINK-1208 3.5 23:22:30 10° WNW 23:26:40 85° NNE 23:27:00 75° ESE
Cosmos 1656 4.4 23:27:53 35° SE 23:28:59 39° ESE 23:34:10 10° NE
ATLAS CENTAUR R/B 2.9 23:26:46 10° NNW 23:28:59 32° NE 23:33:02 10° ESE
STARLINK-1373 3.4 23:30:05 75° NE 23:30:05 75° NE 23:33:39 10° ENE
RESURS DK-1 2.9 23:29:48 47° W 23:30:27 52° WNW 23:34:32 10° NNE
STARLINK-1365 3.4 23:31:12 79° NNE 23:31:12 79° NNE 23:34:54 10° ENE
STARLINK-1271 3.5 23:27:31 10° WNW 23:31:41 89° SSW 23:31:49 84° SE
STARLINK-1390 3.4 23:33:34 78° N 23:33:34 78° N 23:37:16 10° ENE
Cosmos 1697 Rocket 4.1 23:32:47 22° ESE 23:34:04 24° ESE 23:38:32 10° NE
Cosmos 2084 3.8 23:33:36 47° WSW 23:34:41 63° NW 23:39:08 10° NE
Cosmos 1626 2.2 23:36:00 72° NW 23:36:00 72° NW 23:39:33 10° N
BREEZE-M R/B 3.3 23:31:44 21° WSW 23:36:33 78° SSE 23:40:19 10° ENE
STARLINK-1154 3.5 23:32:30 10° WNW 23:36:35 83° WSW 23:36:35 83° WSW
Okean 1-7 Rocket 3.6 23:37:39 60° SW 23:38:14 69° W 23:42:47 10° N
ATLAS CENTAUR R/B 3.5 23:35:42 12° W 23:38:41 23° NW 23:42:02 10° NNE
Cosmos 2227 Rocket 2.7 23:34:41 10° NNW 23:40:16 55° ENE 23:43:30 25° SE
STARLINK-1197 3.5 23:37:27 10° WNW 23:41:21 73° WSW 23:41:21 73° WSW
CZ-4 R/B 3.7 23:38:12 10° NNE 23:43:00 83° ESE 23:43:50 60° S
STARLINK-1198 3.7 23:42:26 10° WNW 23:46:07 64° W 23:46:07 64° W
Cosmos 1602 Rocket 4.0 23:47:23 45° ESE 23:47:57 49° E 23:52:08 10° NNE
SL-08 ROCKET BODY 4.4 23:46:46 42° SSE 23:48:43 67° E 23:54:31 10° NNE
STARLINK-1199 3.8 23:47:27 10° WNW 23:50:55 56° W 23:50:55 56° W
Meteor 2-21 Rocket 4.5 23:50:06 42° SSW 23:52:16 73° W 23:58:29 10° N
